Date,TemperatureHighF,TemperatureAvgF,TemperatureLowF,DewpointHighF,DewpointAvgF,DewpointLowF,HumidityHigh,HumidityAvg,HumidityLow,PressureMaxIn,PressureMinIn,WindSpeedMaxMPH,WindSpeedAvgMPH,GustSpeedMaxMPH,PrecipitationSumIn
2013-1-1,58,46,36,27,22,18,65,41,23,30.20,30.08,10,2,10,0.00
2013-1-2,60,50,43,22,17,15,40,27,18,30.11,29.96,13,4,14,0.00
2013-1-3,62,52,45,18,15,10,32,23,15,30.12,29.97,15,4,15,0.00
2013-1-4,63,51,40,23,16,10,47,26,17,30.23,30.12,9,1,9,0.00
2013-1-5,63,48,35,23,19,15,54,34,18,30.27,30.11,10,1,10,0.00
2013-1-6,65,50,37,36,27,20,60,42,18,30.11,29.90,12,1,14,0.00
2013-1-7,63,51,42,40,31,24,73,48,24,29.94,29.84,17,2,17,0.00
2013-1-8,72,56,41,32,24,17,50,30,14,30.01,29.85,13,2,13,0.00
2013-1-9,73,58,43,32,28,25,56,34,17,30.08,29.88,12,1,13,0.00
2013-1-10,65,54,46,47,32,22,55,43,28,29.92,29.74,25,3,27,0.00
2013-1-11,57,46,36,31,22,14,62,41,19,30.08,29.92,15,1,15,0.00
2013-1-12,55,44,35,27,20,11,66,40,18,30.08,29.95,11,1,11,0.00
2013-1-13,55,42,29,20,11,4,59,31,14,30.11,29.99,10,1,10,0.00
2013-1-14,48,42,36,10,2,-2,25,19,13,30.27,30.06,18,5,20,0.00
2013-1-15,52,43,36,15,5,-1,39,22,12,30.44,30.27,16,4,16,0.00
2013-1-16,61,49,35,25,18,13,42,30,20,30.35,30.15,15,2,15,0.00
2013-1-17,69,57,47,24,21,19,36,25,16,30.20,30.06,15,4,15,0.00
2013-1-18,72,59,49,28,21,17,32,23,15,30.14,30.02,12,2,12,0.00
2013-1-19,72,60,50,24,21,19,31,23,15,30.16,30.03,12,3,12,0.00
2013-1-20,72,60,49,26,19,16,37,22,13,30.08,29.94,12,2,12,0.00
2013-1-21,74,60,45,23,16,11,38,19,9,30.04,29.94,14,2,14,0.00
2013-1-22,77,63,53,27,15,9,31,16,10,30.07,29.96,11,2,11,0.00
2013-1-23,80,65,51,34,25,17,33,22,14,30.05,29.93,13,1,13,0.00
2013-1-24,71,65,58,48,43,30,67,46,25,30.11,29.99,14,2,14,0.00
2013-1-25,69,62,57,56,51,45,92,67,49,30.06,29.88,11,1,13,0.32
2013-1-26,65,60,57,58,56,55,94,89,76,29.88,29.80,9,2,10,0.10
2013-1-27,72,61,53,59,54,40,94,79,54,29.91,29.79,11,2,13,0.15
2013-1-28,61,51,43,41,36,30,78,57,33,30.03,29.89,16,2,17,0.00
2013-1-29,62,50,37,38,35,31,85,58,33,30.15,30.02,10,1,10,0.00
2013-1-30,67,53,40,43,37,30,85,57,26,30.29,30.13,9,1,9,0.00
2013-1-31,72,55,41,43,38,34,81,55,28,30.17,30.02,10,1,11,0.00
2013-2-1,75,58,42,42,39,35,82,53,26,30.11,30.03,9,1,9,0.00
2013-2-2,77,63,51,43,40,36,67,45,25,30.15,30.02,9,1,9,0.00
2013-2-3,76,66,55,44,41,37,64,41,29,30.02,29.87,15,2,15,0.00
2013-2-4,77,62,49,44,41,38,76,50,25,29.96,29.83,10,1,10,0.00
2013-2-5,79,63,49,45,40,37,68,45,23,29.92,29.79,8,0,8,0.00
2013-2-6,78,64,52,44,40,35,64,44,23,29.93,29.78,11,1,11,0.00
2013-2-7,78,62,47,48,40,30,86,50,18,29.99,29.80,10,1,10,0.00
2013-2-8,65,57,47,42,35,27,71,45,25,29.87,29.75,16,3,16,0.01
2013-2-9,62,51,40,37,33,28,75,52,30,29.97,29.79,16,2,18,0.00
2013-2-10,63,51,39,34,31,28,72,50,28,29.98,29.88,12,1,12,0.00
2013-2-11,60,49,39,36,28,18,76,48,23,30.12,29.92,17,2,19,0.00
2013-2-12,62,50,37,26,18,9,60,32,12,30.26,30.12,13,1,13,0.00
2013-2-13,68,52,36,30,23,18,56,35,18,30.17,30.02,14,1,14,0.00
2013-2-14,74,58,41,33,29,26,58,35,18,30.12,29.95,14,2,15,0.00
2013-2-15,78,65,56,30,26,20,35,24,13,30.16,30.03,10,2,11,0.00
2013-2-16,81,68,54,27,18,10,35,16,7,30.12,29.86,24,3,24,0.00
2013-2-17,79,61,44,30,22,14,47,25,10,29.86,29.75,11,1,12,0.00
2013-2-18,79,60,43,34,28,22,58,32,13,29.92,29.78,9,1,10,0.00
2013-2-19,68,56,44,47,38,30,92,54,29,29.79,29.63,14,2,14,0.00
2013-2-20,58,52,46,40,32,24,76,50,27,29.86,29.58,22,3,22,0.01
2013-2-21,67,52,39,43,35,29,76,54,30,29.99,29.85,16,2,16,0.00
2013-2-22,67,53,37,41,30,16,88,50,15,30.11,29.97,11,1,12,0.00
2013-2-23,74,57,39,29,24,17,61,31,13,30.07,29.72,15,1,15,0.00
2013-2-24,63,56,46,28,11,4,47,18,10,30.09,29.80,21,5,25,0.00
2013-2-25,70,54,40,26,16,11,38,23,12,30.16,29.94,10,1,10,0.00
2013-2-26,72,55,38,25,17,10,51,26,10,30.04,29.90,17,2,19,0.00
2013-2-27,69,57,44,19,9,-4,36,16,7,30.18,30.04,17,3,17,0.00
2013-2-28,75,60,45,22,10,-1,30,15,5,30.25,30.15,16,2,16,0.00
2013-3-1,83,64,46,32,22,15,36,22,10,30.25,30.09,10,1,11,0.00
2013-3-2,88,67,48,36,29,23,48,28,10,30.16,29.96,12,1,12,0.00
2013-3-3,80,66,52,39,31,22,45,28,12,29.96,29.78,9,1,9,0.00
2013-3-4,81,66,54,43,39,33,53,38,23,29.94,29.79,12,1,13,0.00
2013-3-5,82,67,52,45,39,35,64,39,21,29.98,29.84,11,1,12,0.00
2013-3-6,80,66,52,42,38,31,68,38,18,29.94,29.77,8,1,8,0.00
2013-3-7,78,63,50,42,39,35,67,44,23,29.87,29.75,11,1,11,0.00
2013-3-8,66,56,48,49,39,31,84,54,27,29.91,29.69,21,2,21,0.09
2013-3-9,70,57,44,40,37,34,74,49,30,30.01,29.90,16,2,16,0.00
2013-3-10,75,62,48,40,34,27,73,40,17,30.12,29.99,14,2,15,0.00
2013-3-11,82,64,47,37,30,25,55,30,14,30.08,29.90,10,1,10,0.00
2013-3-12,87,68,50,36,32,24,52,29,11,29.99,29.87,9,1,9,0.00
2013-3-13,92,73,54,43,35,31,48,28,13,30.01,29.88,10,1,11,0.00
2013-3-14,97,77,59,45,37,28,41,26,9,29.97,29.83,12,1,12,0.00
2013-3-15,97,78,57,44,38,29,53,27,10,29.86,29.71,11,1,11,0.00
2013-3-16,91,76,59,43,35,25,49,25,11,29.76,29.60,9,1,10,0.00
2013-3-17,90,75,56,49,36,23,59,26,11,29.79,29.66,15,2,15,0.00
2013-3-18,88,72,56,48,40,31,57,34,15,29.86,29.75,15,2,15,0.00
2013-3-19,88,72,56,49,42,36,63,37,18,29.90,29.79,10,1,10,0.00
2013-3-20,91,75,59,47,41,31,58,32,15,29.90,29.72,12,2,12,0.00
2013-3-21,87,74,64,43,38,32,47,28,17,29.74,29.57,9,1,9,0.00
2013-3-22,87,71,56,44,35,19,56,31,9,29.70,29.57,15,2,15,0.00
2013-3-23,80,69,54,46,20,2,73,24,5,29.90,29.70,19,3,19,0.00
2013-3-24,84,69,58,31,13,-3,31,13,4,29.91,29.76,10,2,10,0.00
2013-3-25,90,71,51,30,21,12,39,18,6,29.87,29.74,12,1,13,0.00
2013-3-26,92,74,57,34,27,16,39,19,8,29.80,29.66,12,2,13,0.00
2013-3-27,89,74,61,37,30,19,32,21,8,29.84,29.71,12,1,12,0.00
2013-3-28,88,74,59,44,37,29,45,27,15,29.91,29.81,10,1,13,0.00
2013-3-29,92,75,57,43,37,25,55,28,13,29.97,29.85,9,1,10,0.00
2013-3-30,92,77,66,40,31,17,37,21,8,29.93,29.80,10,1,10,0.00
2013-3-31,88,73,59,47,40,33,46,31,22,29.91,29.79,16,2,16,0.00
2013-4-1,83,69,54,46,38,24,62,36,12,29.94,29.79,16,2,16,0.00
2013-4-2,88,71,53,48,41,28,70,39,12,29.89,29.75,13,2,14,0.00
2013-4-3,93,76,58,44,37,30,54,28,11,29.91,29.80,18,2,18,0.00
2013-4-4,94,79,64,46,39,31,38,26,12,29.89,29.76,14,1,14,0.00
2013-4-5,89,76,62,44,39,30,49,28,13,29.86,29.72,14,2,14,0.00
2013-4-6,91,74,58,47,42,38,53,33,16,29.84,29.68,10,1,10,0.00
2013-4-7,93,77,62,51,44,37,62,34,16,29.76,29.55,16,2,16,0.00
2013-4-8,80,68,56,58,44,33,74,44,21,29.58,29.37,34,6,36,0.00
2013-4-9,78,65,52,38,28,15,56,29,11,29.82,29.58,18,3,19,0.00
2013-4-10,79,68,59,31,22,12,33,19,8,29.96,29.82,21,5,22,0.00
2013-4-11,92,74,54,31,23,17,36,17,8,29.86,29.58,16,3,16,0.00
2013-4-12,91,76,57,41,27,16,37,18,8,29.68,29.59,14,2,14,0.00
2013-4-13,94,76,59,46,38,30,51,28,12,29.70,29.56,18,4,18,0.00
2013-4-14,92,76,59,50,45,39,56,36,17,29.61,29.49,22,4,22,0.00
2013-4-15,86,72,61,54,47,37,73,45,24,29.66,29.54,17,4,17,0.00
2013-4-16,76,64,53,38,34,27,54,34,17,29.79,29.64,18,3,20,0.00
2013-4-17,77,64,52,38,24,6,52,26,7,29.98,29.78,18,3,18,0.00
2013-4-18,77,66,56,24,15,7,29,15,8,30.11,29.98,22,3,23,0.00
2013-4-19,87,70,51,33,18,6,36,16,5,30.08,29.83,11,2,12,0.00
2013-4-20,94,75,56,37,27,19,34,19,7,29.86,29.74,10,1,10,0.00
2013-4-21,97,80,59,38,24,14,36,15,6,29.88,29.74,13,2,14,0.00
2013-4-22,98,80,62,36,27,14,31,15,8,29.79,29.61,18,3,18,0.00
2013-4-23,92,77,60,46,25,-11,43,19,3,29.77,29.63,19,3,19,0.00
2013-4-24,95,77,59,43,29,4,41,19,8,29.78,29.64,18,2,18,0.00
2013-4-25,84,73,60,48,41,26,60,33,19,29.88,29.66,14,3,15,0.00
2013-4-26,92,76,58,48,44,36,67,34,15,30.00,29.88,12,1,13,0.00
2013-4-27,100,82,62,46,37,11,53,25,5,29.93,29.74,17,2,17,0.00
2013-4-28,104,86,65,44,28,13,37,16,4,29.76,29.58,11,1,12,0.00
2013-4-29,105,89,68,41,29,13,32,14,4,29.64,29.50,13,2,15,0.00
2013-4-30,102,86,68,35,27,17,22,12,6,29.60,29.51,24,4,24,0.00
2013-5-1,98,83,66,51,38,-12,50,24,2,29.87,29.58,12,2,12,0.00
2013-5-2,91,80,67,30,11,-2,21,8,4,30.04,29.87,25,6,25,0.00
2013-5-3,99,82,62,33,22,8,29,12,5,29.88,29.63,24,3,25,0.00
2013-5-4,99,82,65,47,33,17,35,19,6,29.64,29.50,20,3,20,0.00
2013-5-5,92,78,66,46,37,24,39,24,11,29.75,29.62,18,2,18,0.00
2013-5-6,86,72,59,49,46,42,60,41,25,29.87,29.74,17,2,17,0.00
2013-5-7,82,70,59,47,44,41,60,41,27,29.91,29.79,15,2,16,0.00
2013-5-8,85,71,56,45,40,36,57,35,20,29.94,29.82,12,1,13,0.00
2013-5-9,88,74,59,48,43,35,60,35,16,29.90,29.77,12,2,13,0.00
2013-5-10,97,80,63,50,44,32,61,32,11,29.89,29.78,14,2,14,0.00
2013-5-11,102,86,68,47,40,33,41,21,10,29.90,29.80,15,2,17,0.00
2013-5-12,105,90,73,44,36,28,32,17,8,29.93,29.74,14,2,14,0.00
2013-5-13,108,92,72,49,37,28,36,17,7,29.84,29.68,15,2,15,0.00
2013-5-14,106,91,78,48,42,34,32,19,11,29.77,29.64,18,3,18,0.00
2013-5-15,104,86,71,57,44,30,57,27,9,29.81,29.63,17,2,17,0.00
2013-5-16,103,85,65,51,43,31,55,27,9,29.72,29.57,20,2,20,0.00
2013-5-17,94,82,68,47,41,32,44,25,12,29.75,29.65,19,2,19,0.00
2013-5-18,92,79,64,48,43,36,50,30,16,29.81,29.70,15,2,15,0.00
2013-5-19,96,83,67,48,43,38,44,26,15,29.77,29.64,13,2,14,0.00
2013-5-20,96,84,66,50,35,26,56,21,9,29.78,29.69,20,3,20,0.00
2013-5-21,104,86,65,39,31,18,35,16,5,29.74,29.56,14,1,14,0.00
2013-5-22,105,87,68,52,37,16,37,19,8,29.61,29.46,22,2,22,0.00
2013-5-23,98,83,64,56,24,6,43,14,4,29.69,29.58,14,1,14,0.00
2013-5-24,98,82,63,52,39,23,46,25,8,29.77,29.65,17,2,17,0.00
2013-5-25,99,83,64,52,40,26,52,25,9,29.79,29.66,13,2,15,0.00
2013-5-26,96,82,65,47,32,13,47,20,5,29.82,29.69,13,2,13,0.00
2013-5-27,95,83,70,47,40,34,38,24,12,29.75,29.58,14,2,14,0.00
2013-5-28,97,84,67,51,43,36,41,25,16,29.61,29.44,16,3,19,0.00
2013-5-29,100,85,71,53,50,46,47,31,18,29.62,29.48,18,3,19,0.00
2013-5-30,98,84,70,57,53,46,50,35,24,29.68,29.55,20,4,20,0.00
2013-5-31,103,87,68,59,54,51,65,36,20,29.74,29.61,12,2,13,0.00
2013-6-1,109,91,71,58,50,41,60,29,11,29.67,29.52,10,1,10,0.00
2013-6-2,109,93,73,54,43,30,49,21,9,29.59,29.46,21,4,21,0.00
2013-6-3,104,89,72,52,43,33,42,22,9,29.64,29.49,21,3,21,0.00
2013-6-4,104,88,70,49,43,35,44,23,11,29.69,29.58,17,2,17,0.00
2013-6-5,108,90,68,49,39,30,47,20,8,29.73,29.58,13,1,13,0.00
2013-6-6,110,94,74,47,40,31,34,17,7,29.65,29.51,12,2,12,0.00
2013-6-7,114,95,74,47,36,26,34,15,6,29.60,29.47,15,2,15,0.00
2013-6-8,104,91,76,57,47,27,36,23,12,29.64,29.51,25,4,25,0.00
2013-6-9,105,89,70,53,42,27,50,24,9,29.72,29.60,20,3,20,0.00
2013-6-10,109,91,68,46,34,20,39,17,5,29.69,29.57,17,2,17,0.00
2013-6-11,110,93,74,48,36,15,32,16,4,29.73,29.61,10,1,10,0.00
2013-6-12,108,93,76,57,47,36,42,22,14,29.74,29.63,19,3,19,0.00
2013-6-13,106,93,77,55,48,40,41,23,12,29.76,29.60,15,2,15,0.00
2013-6-14,107,91,75,52,44,31,40,22,9,29.71,29.55,16,2,19,0.00
2013-6-15,106,91,75,49,39,28,39,19,8,29.70,29.60,18,2,18,0.00
2013-6-16,107,92,72,45,29,14,28,13,4,29.77,29.64,11,1,11,0.00
2013-6-17,110,93,72,50,37,24,36,17,6,29.74,29.60,15,2,18,0.00
2013-6-18,110,92,71,45,37,26,38,17,6,29.68,29.52,15,2,15,0.00
2013-6-19,106,91,72,50,34,18,31,16,5,29.62,29.50,18,2,18,0.00
2013-6-20,107,91,73,54,42,32,46,21,9,29.65,29.53,14,2,16,0.00
2013-6-21,106,90,73,50,44,26,43,21,11,29.68,29.54,18,2,18,0.00
2013-6-22,108,91,73,56,44,32,37,22,8,29.68,29.53,13,2,14,0.00
2013-6-23,106,89,71,55,44,34,41,22,10,29.62,29.47,21,3,21,0.00
2013-6-24,103,88,72,52,47,36,47,26,11,29.68,29.56,14,2,14,0.00
2013-6-25,104,90,73,61,51,44,48,29,15,29.75,29.64,12,2,13,0.00
2013-6-26,108,94,78,51,44,31,39,19,11,29.81,29.70,16,3,16,0.00
2013-6-27,112,93,71,58,52,40,46,26,16,29.87,29.71,12,2,14,0.00
2013-6-28,117,100,81,62,50,36,44,22,7,29.75,29.54,15,2,15,0.00
2013-6-29,112,99,87,63,55,48,35,24,13,29.62,29.52,22,4,22,0.00
2013-6-30,113,98,84,64,60,53,43,30,19,29.65,29.50,26,4,26,0.00
2013-7-1,114,101,87,67,60,56,48,29,16,29.69,29.56,23,3,24,0.00
2013-7-2,110,98,87,68,61,54,50,31,17,29.83,29.59,23,5,23,0.00
2013-7-3,113,97,84,61,56,50,44,27,15,29.67,29.49,17,2,18,0.00
2013-7-4,108,96,89,66,61,53,43,32,23,29.61,29.48,34,7,34,0.00
2013-7-5,106,94,84,66,57,43,50,30,18,29.63,29.52,21,4,21,0.00
2013-7-6,111,95,78,56,50,44,41,23,14,29.61,29.47,15,2,18,0.00
2013-7-7,117,99,77,59,52,44,50,24,11,29.60,29.47,12,1,12,0.00
2013-7-8,112,98,88,67,60,54,39,29,17,29.71,29.58,18,4,18,0.00
2013-7-9,106,92,85,73,68,62,66,47,30,29.86,29.70,26,6,28,0.00
2013-7-10,104,91,0,72,67,63,66,46,30,29.83,0.00,29,5,33,0.00
2013-7-11,104,89,75,72,67,60,83,51,26,29.78,29.65,15,3,16,0.18
2013-7-12,108,93,78,70,62,59,62,38,21,29.75,29.59,16,2,16,0.00
2013-7-13,110,96,80,64,62,58,57,34,20,29.74,29.60,16,2,16,0.00
2013-7-14,113,99,85,67,63,60,50,32,20,29.72,29.56,14,2,16,0.00
2013-7-15,114,100,86,65,60,55,46,29,17,29.64,29.48,15,3,16,0.00
2013-7-16,106,96,84,68,57,38,48,29,13,29.75,29.60,14,2,14,0.00
2013-7-17,110,96,82,66,61,52,55,33,20,29.81,29.67,12,1,14,0.00
2013-7-18,112,99,84,68,60,51,44,28,17,29.74,29.57,17,2,18,0.00
2013-7-19,101,91,84,74,70,59,69,51,34,29.76,29.61,24,6,24,0.00
2013-7-20,100,88,78,74,71,66,88,59,39,29.74,29.58,17,3,17,0.19
2013-7-21,91,83,75,76,72,66,90,71,50,29.76,29.64,18,2,18,0.65
2013-7-22,101,88,79,75,70,62,86,58,35,29.82,29.70,15,2,15,0.00
2013-7-23,105,93,79,72,66,61,75,44,30,29.81,29.65,14,2,14,0.00
2013-7-24,109,96,83,68,64,60,58,37,25,29.73,29.59,14,2,14,0.00
2013-7-25,103,91,78,74,66,54,81,45,29,29.82,29.65,18,1,18,0.15
2013-7-26,109,97,86,72,65,58,62,38,22,29.86,29.73,17,2,17,0.00
2013-7-27,112,98,84,66,60,56,50,30,21,29.78,29.58,12,2,12,0.00
2013-7-28,110,98,83,66,53,37,53,25,12,29.66,29.53,12,2,17,0.00
2013-7-29,108,94,78,64,54,42,45,26,19,29.77,29.64,18,3,18,0.00
2013-7-30,110,97,85,59,54,50,39,25,15,29.87,29.75,18,3,18,0.00
2013-7-31,110,95,81,60,55,46,47,28,16,29.84,29.67,10,2,14,0.00
2013-8-1,110,97,82,57,49,34,36,21,11,29.73,29.59,20,3,20,0.00
2013-8-2,107,94,78,61,47,29,48,23,10,29.72,29.62,19,3,19,0.00
2013-8-3,109,93,74,58,44,14,40,21,4,29.77,29.62,16,2,16,0.00
2013-8-4,112,95,77,57,41,23,47,20,5,29.77,29.64,16,2,16,0.00
2013-8-5,105,92,77,73,54,36,56,30,14,29.79,29.68,14,4,22,0.00
2013-8-6,106,94,85,66,60,39,47,33,16,29.82,29.70,16,3,16,0.00
2013-8-7,107,94,78,64,48,18,57,27,5,29.81,29.68,11,2,12,0.00
2013-8-8,109,94,77,57,41,26,38,19,7,29.74,29.61,13,2,14,0.00
2013-8-9,109,93,74,55,41,28,34,19,7,29.70,29.60,15,2,15,0.00
2013-8-10,104,90,74,62,45,5,55,27,4,29.79,29.67,17,2,17,0.00
2013-8-11,108,91,70,51,38,22,44,19,7,29.77,29.62,11,1,13,0.00
2013-8-12,108,91,71,55,43,28,55,24,7,29.74,29.62,12,1,12,0.00
2013-8-13,108,92,72,60,49,35,40,24,12,29.79,29.64,18,1,18,0.00
2013-8-14,111,94,75,63,56,44,66,33,12,29.76,29.61,14,1,14,0.00
2013-8-15,114,100,84,65,57,48,39,26,16,29.75,29.61,14,2,14,0.00
2013-8-16,115,100,84,68,62,53,56,31,18,29.73,29.60,18,2,19,0.00
2013-8-17,115,100,84,60,56,49,43,25,16,29.74,29.55,25,2,25,0.00
2013-8-18,114,101,91,63,60,56,38,27,18,29.70,29.57,26,4,31,0.00
2013-8-19,112,99,89,62,59,56,40,28,17,29.73,29.59,12,1,13,0.00
2013-8-20,115,99,84,69,55,46,41,25,12,29.70,29.56,17,2,18,0.00
2013-8-21,112,99,86,68,60,53,44,29,17,29.71,29.60,15,2,15,0.00
2013-8-22,110,90,74,72,68,60,87,52,25,29.75,29.61,25,3,28,0.65
2013-8-23,106,92,79,73,69,64,80,49,27,29.70,29.54,21,2,21,0.00
2013-8-24,102,88,76,76,69,64,83,54,32,29.78,29.63,19,3,21,0.41
2013-8-25,87,82,78,73,71,67,82,70,56,29.84,29.73,10,1,10,0.02
2013-8-26,98,85,74,74,71,68,88,64,39,29.83,29.66,14,2,14,0.07
2013-8-27,106,92,80,72,69,66,70,50,30,29.70,29.56,11,1,11,0.00
2013-8-28,109,93,82,75,70,63,70,50,27,29.78,29.58,22,2,22,0.04
2013-8-29,95,83,75,77,74,71,91,77,51,29.89,29.76,21,2,22,0.75
2013-8-30,99,88,80,77,74,67,89,65,38,29.89,29.77,9,0,9,0.00
2013-8-31,104,93,83,75,71,67,78,52,32,29.81,29.65,16,1,23,0.00
2013-9-1,107,95,83,71,67,61,66,43,23,29.74,29.60,11,1,11,0.00
2013-9-2,109,94,83,72,68,62,64,44,29,29.73,29.59,16,2,16,0.00
2013-9-3,111,96,82,69,66,60,62,40,21,29.74,29.60,17,1,18,0.00
2013-9-4,104,92,80,75,68,62,80,48,27,29.78,29.66,22,2,22,0.17
2013-9-5,110,95,80,74,67,59,79,44,20,29.74,29.61,4,1,8,0.00
2013-9-6,105,93,76,72,66,58,76,43,22,29.78,29.59,23,2,23,0.22
2013-9-7,99,86,78,71,68,62,78,58,33,29.80,29.68,14,1,15,0.00
2013-9-8,105,88,76,71,68,61,81,54,28,29.71,29.55,20,1,20,0.00
2013-9-9,100,84,72,74,68,63,88,60,37,29.67,29.51,21,2,21,0.64
2013-9-10,96,82,72,73,68,65,90,65,39,29.74,29.63,10,1,10,0.06
2013-9-11,102,88,77,73,66,55,82,53,23,29.81,29.68,12,1,12,0.00
2013-9-12,104,90,76,71,64,54,78,47,20,29.74,29.59,9,0,9,0.00
2013-9-13,106,91,76,65,58,50,68,37,17,29.62,29.44,11,1,11,0.00
2013-9-14,110,93,77,64,57,50,57,34,15,29.54,29.43,11,1,12,0.00
2013-9-15,111,95,78,63,56,49,57,30,14,29.59,29.50,13,1,13,0.00
2013-9-16,112,96,81,60,53,43,48,26,11,29.62,29.51,11,1,11,0.00
2013-9-17,110,94,79,57,50,42,43,25,11,29.58,29.43,11,1,11,0.00
2013-9-18,104,89,75,65,54,39,68,34,15,29.57,29.46,14,2,15,0.00
2013-9-19,102,86,69,66,54,43,61,36,19,29.63,29.53,8,0,9,0.00
2013-9-20,105,88,72,65,58,43,75,42,14,29.66,29.55,14,2,14,0.00
2013-9-21,103,88,73,64,54,41,58,34,18,29.66,29.49,12,2,16,0.00
2013-9-22,91,79,66,51,41,26,55,29,11,29.65,29.54,14,2,14,0.00
2013-9-23,98,82,68,44,36,32,35,20,11,29.75,29.64,11,1,11,0.00
2013-9-24,100,83,65,53,46,37,51,29,14,29.80,29.63,10,1,10,0.00
2013-9-25,97,83,69,64,52,40,71,39,15,29.65,29.46,12,1,12,0.00
2013-9-26,87,75,63,47,38,29,48,28,14,29.67,29.51,17,2,18,0.00
2013-9-27,85,73,60,48,32,23,64,26,11,29.84,29.67,23,3,23,0.00
2013-9-28,92,76,60,39,31,24,39,21,9,29.92,29.82,11,1,11,0.00
2013-9-29,96,79,62,42,34,22,42,23,9,29.93,29.79,10,1,11,0.00
2013-9-30,98,80,62,53,42,35,48,29,12,29.83,29.67,11,0,11,0.00
2013-10-1,98,80,62,60,49,39,69,37,16,29.79,29.67,16,2,16,0.00
2013-10-2,96,81,63,60,49,39,54,34,23,29.78,29.64,17,2,17,0.00
2013-10-3,95,80,65,68,54,40,74,47,16,29.70,29.55,12,2,13,0.00
2013-10-4,84,76,68,63,24,13,71,19,8,29.93,29.66,21,5,21,0.00
2013-10-5,85,75,66,26,23,16,20,15,8,30.07,29.92,19,4,19,0.00
2013-10-6,94,78,64,31,23,12,27,14,5,29.99,29.84,11,2,11,0.00
2013-10-7,96,77,61,36,28,20,29,18,7,29.85,29.71,10,0,10,0.00
2013-10-8,95,78,60,53,38,28,52,25,13,29.74,29.56,12,2,12,0.00
2013-10-9,80,69,60,52,43,39,58,40,26,29.66,29.56,17,2,17,0.00
2013-10-10,74,65,56,49,41,35,71,44,25,29.87,29.66,13,1,13,0.00
2013-10-11,82,67,51,43,39,35,65,39,21,29.93,29.78,9,0,9,0.00
2013-10-12,88,71,54,44,40,37,64,36,18,29.84,29.73,8,0,8,0.00
2013-10-13,88,73,57,57,46,36,56,40,22,29.84,29.72,14,1,14,0.00
2013-10-14,86,72,57,48,38,28,60,32,13,29.92,29.81,15,1,15,0.00
2013-10-15,85,73,63,36,30,24,35,22,11,29.88,29.77,12,2,12,0.00
2013-10-16,84,71,60,37,30,25,38,23,12,29.99,29.87,15,2,15,0.00
2013-10-17,87,69,52,38,29,16,55,27,8,29.94,29.78,11,1,11,0.00
2013-10-18,91,70,51,37,29,22,48,25,9,29.90,29.80,9,1,10,0.00
2013-10-19,91,73,58,34,29,24,37,21,10,29.92,29.80,9,1,9,0.00
2013-10-20,94,73,54,38,31,23,49,24,8,29.83,29.70,8,0,9,0.00
2013-10-21,93,72,55,43,35,28,51,29,11,29.85,29.75,5,0,5,0.00
2013-10-22,94,74,55,44,34,23,61,28,9,29.88,29.74,11,1,12,0.00
2013-10-23,94,75,55,40,32,24,50,24,9,29.76,29.68,10,1,11,0.00
2013-10-24,90,74,57,51,42,32,51,33,22,29.84,29.72,8,0,8,0.00
2013-10-25,93,74,56,57,46,34,79,42,14,29.95,29.84,6,0,6,0.00
2013-10-26,90,74,58,42,37,30,49,29,13,29.94,29.82,12,1,12,0.00
2013-10-27,95,75,57,46,38,31,55,30,12,29.82,29.61,12,1,12,0.00
2013-10-28,85,72,61,50,46,41,60,42,22,29.78,29.62,12,1,12,0.00
2013-10-29,73,64,54,46,43,39,67,47,35,29.85,29.77,15,1,15,0.00
2013-10-30,76,62,49,44,39,35,72,45,23,29.94,29.84,11,1,11,0.00
2013-10-31,80,62,47,37,33,29,64,37,17,30.03,29.91,10,1,10,0.00
2013-11-1,82,66,51,36,32,28,53,31,15,30.04,29.89,10,1,10,0.00
2013-11-2,86,68,51,38,33,29,53,31,13,29.91,29.72,7,0,7,0.00
2013-11-3,85,69,54,40,33,28,47,29,15,29.76,29.62,9,0,9,0.00
2013-11-4,80,66,52,56,41,34,77,42,21,29.73,29.60,12,1,12,0.00
2013-11-5,73,65,57,41,25,16,55,23,12,30.06,29.73,18,4,20,0.00
2013-11-6,77,65,54,28,19,16,26,18,11,30.18,30.06,9,2,11,0.00
2013-11-7,84,68,54,32,21,15,33,18,8,30.06,29.91,10,1,10,0.00
2013-11-8,87,68,54,36,27,17,37,24,8,29.94,29.82,7,0,7,0.00
2013-11-9,85,66,50,39,34,28,51,32,16,29.98,29.87,5,0,5,0.00
2013-11-10,84,67,52,39,34,30,54,32,15,30.01,29.91,9,0,9,0.00
2013-11-11,88,74,64,39,33,30,30,23,15,29.96,29.87,11,2,11,0.00
2013-11-12,90,79,70,35,29,24,22,16,12,30.03,29.91,14,3,15,0.00
2013-11-13,88,79,65,48,41,24,46,27,14,29.93,29.80,27,3,27,0.00
2013-11-14,88,72,58,46,43,39,58,38,20,29.87,29.65,10,1,10,0.00
2013-11-15,86,72,60,56,47,40,58,41,27,29.65,29.42,21,3,24,0.00
2013-11-16,76,63,52,46,42,39,68,48,28,29.79,29.59,11,1,11,0.00
2013-11-17,74,62,51,52,46,40,70,57,40,29.95,29.79,12,1,13,0.00
2013-11-18,80,64,52,49,47,44,78,56,33,30.00,29.87,5,1,8,0.00
2013-11-19,78,64,53,50,47,44,77,57,36,29.91,29.76,9,0,11,0.00
2013-11-20,78,66,56,56,47,44,71,53,33,29.80,29.70,10,1,10,0.00
2013-11-21,77,64,55,58,53,48,89,69,47,29.82,29.72,23,1,23,0.74
2013-11-22,58,55,51,55,52,49,93,90,87,29.88,29.69,14,2,14,0.81
2013-11-23,60,54,50,52,49,48,93,85,74,30.01,29.87,10,2,11,0.03
2013-11-24,66,56,50,50,48,45,87,74,53,30.09,30.00,11,1,11,0.00
2013-11-25,68,56,47,49,45,42,89,70,41,30.16,30.07,13,1,13,0.00
2013-11-26,71,58,47,50,46,43,87,65,41,30.17,30.01,8,0,8,0.00
2013-11-27,68,63,58,46,36,32,64,38,30,30.01,29.84,18,3,22,0.00
2013-11-28,71,62,53,43,36,31,69,39,30,29.97,29.84,20,2,20,0.00
2013-11-29,72,58,47,46,43,41,84,61,35,30.08,29.96,11,1,11,0.00
2013-11-30,72,59,48,46,43,41,79,58,33,30.10,29.98,9,1,10,0.00
2013-12-1,74,60,50,46,42,40,76,53,30,30.14,30.03,11,1,11,0.00
2013-12-2,75,60,48,43,40,36,72,49,26,30.06,29.76,9,1,11,0.00
2013-12-3,77,63,49,56,46,39,78,57,27,29.76,29.54,15,2,17,0.00
2013-12-4,61,57,49,47,35,19,73,47,27,29.88,29.60,18,2,18,0.00
2013-12-5,59,49,43,27,22,17,47,34,22,30.03,29.87,11,1,11,0.00
2013-12-6,58,50,44,31,23,16,58,36,26,30.12,30.02,16,2,16,0.00
2013-12-7,63,51,38,37,32,28,77,50,30,30.02,29.87,15,2,15,0.00
2013-12-8,57,50,42,38,24,12,62,37,23,30.10,29.93,11,1,12,0.00
2013-12-9,52,46,37,14,9,6,36,23,16,30.32,30.10,20,3,20,0.00
2013-12-10,56,48,40,14,10,7,28,21,15,30.30,30.07,15,3,16,0.00
2013-12-11,63,52,43,21,16,10,32,23,17,30.16,30.06,11,2,11,0.00
2013-12-12,67,56,48,32,23,18,53,29,18,30.11,30.01,11,1,13,0.00
2013-12-13,68,54,42,38,33,30,73,49,25,30.11,30.01,5,0,5,0.00
2013-12-14,68,56,45,32,25,22,56,31,18,30.27,30.11,15,2,15,0.00
2013-12-15,70,59,50,30,26,23,45,29,19,30.24,30.09,12,2,12,0.00
2013-12-16,76,62,48,31,28,24,47,28,17,30.14,30.01,12,2,12,0.00
2013-12-17,78,63,49,36,31,28,52,31,19,30.11,29.94,11,1,11,0.00
2013-12-18,76,64,56,44,33,27,62,32,21,29.94,29.68,10,1,10,0.00
2013-12-19,69,56,45,47,42,35,83,60,39,29.68,29.57,10,1,12,0.10
2013-12-20,65,54,47,48,42,36,90,67,36,29.78,29.57,12,1,12,0.09
2013-12-21,66,53,42,46,41,37,87,65,39,29.96,29.75,6,1,9,0.00
2013-12-22,65,53,42,48,43,39,91,72,50,30.19,29.96,9,0,9,0.00
2013-12-23,69,55,42,47,37,28,89,57,26,30.30,30.16,10,1,10,0.01
2013-12-24,73,60,50,39,34,30,64,39,24,30.16,30.03,11,1,12,0.00
2013-12-25,71,61,49,38,28,19,66,31,15,30.20,30.07,15,2,15,0.00
2013-12-26,73,60,51,24,19,15,33,20,13,30.16,30.03,11,2,11,0.00
2013-12-27,73,59,45,28,22,16,49,26,13,30.12,29.99,9,1,9,0.00
2013-12-28,65,57,45,32,27,22,60,33,23,30.01,29.83,15,1,15,0.00
2013-12-29,68,57,43,33,24,16,66,31,16,30.07,29.89,20,3,20,0.00
2013-12-30,71,57,45,28,20,14,50,25,13,30.19,30.07,9,1,10,0.00
2013-12-31,70,53,38,33,27,20,69,41,17,30.13,30.00,8,0,8,0.00
2014-1-1,72,55,44,32,26,22,49,34,15,30.08,29.98,11,1,11,0.00
2014-1-2,75,58,42,34,30,27,61,37,18,30.07,29.93,9,1,10,0.00